This is the latest recevied weather packets stored in our database for station/object AI9F. If no packets are shown the sender has not sent any weather packets the latest 10 day(s).
| Time | Temp. | Humidity | Pressure | Rain* | Wind** | Luminosity | Snow |
|---|---|---|---|---|---|---|---|
| 1777984876 | 15° C | 91% | 1008.2 hPa | 0 mm | - | 23 W/m² | - |
| 1777984572 | 15.56° C | 92% | 1008.1 hPa | 0 mm | - | 13 W/m² | - |
| 1777984268 | 15° C | 93% | 1008.6 hPa | 0 mm | - | 6 W/m² | - |
| 1777983965 | 15° C | 93% | 1008.6 hPa | 0 mm | - | 6 W/m² | - |
| 1777983662 | 15° C | 94% | 1008.4 hPa | 0 mm | - | 7 W/m² | - |
| 1777983359 | 15° C | 94% | 1008.1 hPa | 0 mm | - | 5 W/m² | - |
| 1777983056 | 15° C | 94% | 1007.9 hPa | 0 mm | - | 4 W/m² | - |
| 1777982752 | 15° C | 94% | 1007.5 hPa | 0 mm | - | 7 W/m² | - |
| 1777982448 | 15° C | 95% | 1007.2 hPa | 0 mm | - | 7 W/m² | - |
| 1777982142 | 15° C | 95% | 1007.3 hPa | 0 mm | - | 7 W/m² | - |
| 1777981840 | 15° C | 95% | 1007 hPa | 0 mm | - | 9 W/m² | - |
| 1777981537 | 15° C | 95% | 1006.9 hPa | 0 mm | - | 5 W/m² | - |
| 1777981233 | 15° C | 94% | 1007 hPa | 0 mm | - | 7 W/m² | - |
| 1777980930 | 15° C | 94% | 1006.9 hPa | 0 mm | - | 5 W/m² | - |
| 1777980626 | 15° C | 94% | 1006.7 hPa | 0 mm | - | 5 W/m² | - |
| 1777980323 | 15° C | 94% | 1006.9 hPa | 0 mm | - | 4 W/m² | - |
| 1777980021 | 15° C | 94% | 1006.7 hPa | 0 mm | - | 4 W/m² | - |
| 1777979720 | 15° C | 94% | 1006.7 hPa | 0 mm | - | 3 W/m² | - |
| 1777979417 | 15° C | 94% | 1006.6 hPa | 0 mm | - | 2 W/m² | - |
| 1777979114 | 15° C | 93% | 1006.7 hPa | 0 mm | - | 2 W/m² | - |
| 1777978810 | 15° C | 93% | 1006.6 hPa | 0 mm | - | 1 W/m² | - |
| 1777978507 | 15° C | 93% | 1006.5 hPa | 0 mm | - | 1 W/m² | - |
| 1777978203 | 15° C | 93% | 1006.5 hPa | 0 mm | - | 1 W/m² | - |
| 1777977900 | 15° C | 93% | 1006.5 hPa | 0 mm | - | 0 W/m² | - |
| 1777977597 | 15° C | 93% | 1006.5 hPa | 0 mm | - | 0 W/m² | - |
* Rain latest hour (hover to see other rain measurements)
** Current wind speed in m/s (hover to see current wind gust speed)